This demonstration page uses our WeatherBlox Daily Observations layout. Learn more.

Left ArrowRight Arrow

Hourly Observations for June 26, 2017

Temp ( °F °C ) Dew Point ( °F °C ) Humidity (%) Winds ( mph kmh ) Pressure ( in mb ) Visibility ( mi km ) Precip ( " mm )
12:53 am 00:53 Clear 59 15 40 4.4 49 49 ENE 9 15 30.08 1019 10 16 0.00 0.00
1:53 am 01:53 Clear 58 14.4 39 3.9 50 50 ENE 12 19 30.06 1018 10 16 0.00 0.00
2:53 am 02:53 Clear 56 13.3 39 3.9 53 53 ENE 12 19 30.04 1017 10 16 0.00 0.00
3:53 am 03:53 Clear 54 12.2 39 3.9 57 57 ENE 10 17 30.02 1017 10 16 0.00 0.00
4:53 am 04:53 Clear 51 10.6 39 3.9 64 64 ENE 8 13 30.01 1016 10 16 0.00 0.00
5:53 am 05:53 Sunny 52 11.1 39 3.9 61 61 ENE 12 19 30.00 1016 10 16 0.00 0.00
6:53 am 06:53 Sunny 55 12.8 39 3.9 55 55 E 13 20 29.98 1015 10 16 0.00 0.00
7:53 am 07:53 Sunny 59 15 40 4.4 49 49 E 9 15 29.96 1015 10 16 0.00 0.00
8:53 am 08:53 Sunny 66 18.9 43 6.1 43 43 E 9 15 29.94 1014 10 16 0.00 0.00
9:53 am 09:53 Sunny 73 22.8 44 6.7 35 35 ENE 7 11 29.91 1013 10 16 0.00 0.00
10:53 am 10:53 Sunny 81 27.2 43 6.1 26 26 NE 8 13 29.88 1012 10 16 0.00 0.00
11:53 am 11:53 Sunny 85 29.4 41 5 21 21 S 7 11 29.84 1010 10 16 0.00 0.00
12:53 pm 12:53 Sunny 88 31.1 40 4.4 18 18 SSE 10 17 29.80 1009 10 16 0.00 0.00
1:53 pm 13:53 Sunny 92 33.3 36 2.2 14 14 SSE 9 15 29.76 1008 10 16 0.00 0.00
2:53 pm 14:53 Sunny 94 34.4 36 2.2 13 13 SSW 6 9 29.73 1007 10 16 0.00 0.00
3:53 pm 15:53 Sunny 96 35.6 34 1.1 11 11 S 6 9 29.70 1006 10 16 0.00 0.00
4:53 pm 16:53 Sunny 97 36.1 35 1.7 11 11 S 6 9 29.67 1005 10 16 0.00 0.00
5:53 pm 17:53 Sunny 89 31.7 41 5 19 19 SW 16 26 29.66 1004 10 16 0.00 0.00
6:34 pm 18:34 Sunny with Nearby Thunderstorms 86 30 39 4 19 19 S 15 24 29.53 1000 10 16 0.00 0.00
6:53 pm 18:53 Partly Cloudy with Thunderstorms 84 28.9 43 6.1 24 24 W 13 20 29.74 1007 10 16 0.00 0.03
7:03 pm 19:03 Windy with Storms Likely 73 22.8 54 12.2 51 51 SW 29 46 29.68 1005 10 16 0.00 0.03
7:10 pm 19:10 Mostly Cloudy with Nearby Thunderstorms 70 21 55 13 60 60 SSE 20 31 29.62 1003 10 16 0.00 0.00
7:26 pm 19:26 Partly Cloudy 70 21 57 14 64 64 SSE 14 22 29.62 1003 10 16 0.00 0.00
7:53 pm 19:53 Sunny 73 22.8 54 12.2 51 51 E 7 11 29.63 1004 10 16 0.00 0.03
8:53 pm 20:53 Sunny 74 23.3 53 11.7 48 48 E 10 17 29.63 1003 10 16 0.00 0.00
9:53 pm 21:53 Clear 71 21.7 53 11.7 53 53 E 3 6 29.64 1004 10 16 0.00 0.00
10:53 pm 22:53 Clear 62 16.7 53 11.7 73 73 SSW 7 11 29.64 1004 10 16 0.00 0.00
11:53 pm 23:53 Clear 62 16.7 55 12.8 78 78 WSW 6 9 29.62 1003 10 16 0.00 0.00

Powered by AerisWeather